Location: Cudham
(51.3000°N, 0.0667°E)
Time: 23:16:05
(UTC+00:00)

Cosmos 2151 - Pass Details

Date: 15 May 2026
Orbit: 556 x 575 km, 82.5° (Epoch: 9 June)

Event Time Altitude Azimuth Distance (km) Brightness Sun altitude
Rises 20:48:55 0° 350° (N) 2,777 7.4 -8.6°
Reaches altitude 10° 20:51:07 10° 352° (N) 1,872 6.4 -8.9°
Maximum altitude 20:55:15 76° 78° (ENE) 587 2.9 -9.3°
Enters shadow 20:59:15 10° 165° (SSE) 1,823 4.9 -9.7°
